User: anonymous   Login
Location: Unspecified
(0.0000°N, 0.0000°E)
Time: 02:25:29
(UTC+00:00)
Language:

Vanguard 3 - Orbit

View from above orbital plane
View from above orbital plane
View from above satellite
View from above satellite

Ground track
Ground track

The orbit data is extracted from the following two-line orbital elements,

1    20U 59007A   18267.29092953 -.00000032 +00000-0 -15845-4 0  9990
2    20 033.3426 273.9348 1667669 153.5975 216.0262 11.55588089157458
Epoch (UTC): 24 September 2018 06:58:56
Eccentricity: 0.1667669
inclination: 33.3426°
perigee height: 508 km
apogee height: 3264 km
right ascension of ascending node: 273.9348°
argument of perigee: 153.5975°
revolutions per day: 11.55588089
mean anomaly at epoch: 216.0262°
orbit number at epoch: 15745

The dashed part of the orbit path shows where the satellite is in the earth's shadow,  

DLR